Weather History for Mount Airy, NC

Change the Weather History Date:

Saturday, March 3, 2012

  Actual Average (KINT) Record (KINT)
Temperature  
Mean Temperature 52 °F -  
Max Temperature 59 °F 54 °F 81 °F (1976)
Min Temperature 46 °F 35 °F 4 °F (1980)
Degree Days  
Heating Degree Days 12    
Growing Degree Days 2 (Base 50)    
Moisture  
Dew Point 33 °F    
Average Humidity 58    
Maximum Humidity 93    
Minimum Humidity 15    
Precipitation  
Precipitation 0.52 in - - ()
Sea Level Pressure  
Sea Level Pressure 29.69 in    
Wind  
Wind Speed 4 mph (NW)    
Max Wind Speed 14 mph    
Max Gust Speed 21 mph    
Visibility 7 miles    
Events Fog , Rain    
Averages and records for this station are not official NWS values.
T = Trace of Precipitation, MM = Missing Value Source: NWS Daily Summary

Daily Weather History Graph

Daily Weather History Graph

Search for Another Location

Airport:

Trip Planner

Search our weather history database for the weather conditions in past years. The results will help you decide how hot, cold, wet, or windy it might be!

Date:

Astronomy

Mar. 03, 2012 Rise Set
Actual Time 6:49 AM EST 6:19 PM EST
Civil Twilight 6:23 AM EST 6:45 PM EST
Nautical Twilight 5:53 AM EST 7:14 PM EST
Astronomical Twilight 5:23 AM EST 7:44 PM EST
Moon 1:34 PM EST (3/3) 3:18 AM EST (3/3)
Length of Visible Light 12h 21m
Length of Day
11h 29m
Waxing Gibbous, 75% of the Moon is Illuminated
Mar 3
Waxing Gibbous
Mar 8
Full
Mar 14
Last Quarter
Mar 22
New
Mar 30
First Quarter

Hourly Weather History & Observations

Time (EST) Temp. Windchill Dew Point Humidity Pressure Visibility Wind Dir Wind Speed Gust Speed Precip Events Conditions
12:15 AM 46.4 °F - 44.6 °F 93% 29.70 in 0.5 mi Calm Calm - N/A Fog Fog
12:35 AM 46.4 °F 45.2 °F 44.6 °F 93% 29.71 in 0.5 mi NW 3.5 mph - N/A Fog Fog
12:55 AM 46.4 °F - 44.6 °F 93% 29.69 in 0.8 mi Calm Calm - N/A Rain Light Rain
1:15 AM 46.4 °F - 44.6 °F 93% 29.68 in 2.0 mi Calm Calm - 0.01 in Rain Rain
1:35 AM 48.2 °F - 46.4 °F 93% 29.66 in 1.0 mi Calm Calm - 0.21 in Rain Light Rain
1:55 AM 50.0 °F - 46.4 °F 87% 29.64 in 2.0 mi Calm Calm - 0.23 in Rain Rain
2:15 AM 48.2 °F - 46.4 °F 93% 29.63 in 2.0 mi SE 3.5 mph - N/A Rain Light Rain
2:35 AM 50.0 °F - 46.4 °F 87% 29.63 in 3.0 mi Calm Calm - N/A   Mostly Cloudy
2:55 AM 48.2 °F - 44.6 °F 87% 29.61 in 0.8 mi Calm Calm - N/A   Overcast
3:15 AM 48.2 °F - 44.6 °F 87% 29.61 in 0.5 mi Calm Calm - 0.01 in Rain Rain
3:35 AM 48.2 °F - 44.6 °F 87% 29.62 in 2.5 mi Calm Calm - 0.07 in Rain Heavy Rain
3:55 AM 48.2 °F - 46.4 °F 93% 29.58 in 2.0 mi ESE 3.5 mph - 0.11 in Rain Rain
4:15 AM 48.2 °F - 46.4 °F 93% 29.61 in 5.0 mi WNW 6.9 mph - N/A Rain Light Rain
4:35 AM 48.2 °F - 46.4 °F 93% 29.61 in 3.0 mi Calm Calm - 0.01 in   Light Drizzle
4:55 AM 48.2 °F - 46.4 °F 93% 29.61 in 2.0 mi Calm Calm - 0.01 in   Drizzle
5:15 AM 48.2 °F - 46.4 °F 93% 29.62 in 2.5 mi Calm Calm - N/A   Overcast
5:35 AM 50.0 °F - 46.4 °F 87% 29.63 in 3.0 mi Calm Calm - N/A   Overcast
5:55 AM 50.0 °F - 46.4 °F 87% 29.65 in 3.0 mi NW 4.6 mph - 0.15 in Rain Rain
6:15 AM 50.0 °F - 46.4 °F 87% 29.64 in 5.0 mi Calm Calm - 0.01 in Rain Light Rain
6:35 AM 50.0 °F - 46.4 °F 87% 29.63 in 10.0 mi NW 3.5 mph - 0.01 in   Light Drizzle
6:55 AM 50.0 °F - 46.4 °F 87% 29.65 in 10.0 mi NW 4.6 mph - 0.01 in   Overcast
7:15 AM 51.8 °F - 46.4 °F 82% 29.64 in 10.0 mi NNW 5.8 mph - N/A   Overcast
7:35 AM 51.8 °F - 46.4 °F 82% 29.66 in 10.0 mi NNW 8.1 mph - N/A   Mostly Cloudy
7:55 AM 51.8 °F - 44.6 °F 76% 29.68 in 10.0 mi NNW 12.7 mph 17.3 mph N/A   Overcast
8:15 AM 51.8 °F - 39.2 °F 62% 29.69 in 10.0 mi NW 5.8 mph - N/A   Overcast
8:35 AM 51.8 °F - 37.4 °F 58% 29.70 in 10.0 mi NW 9.2 mph - N/A   Overcast
8:55 AM 51.8 °F - 37.4 °F 58% 29.70 in 10.0 mi WNW 3.5 mph - N/A   Mostly Cloudy
9:15 AM 51.8 °F - 37.4 °F 58% 29.72 in 10.0 mi NW 6.9 mph - 0.01 in   Mostly Cloudy
9:35 AM 50.0 °F - 37.4 °F 62% 29.73 in 10.0 mi NW 6.9 mph - 0.01 in   Overcast
9:55 AM 51.8 °F - 37.4 °F 58% 29.75 in 10.0 mi NW 6.9 mph - 0.01 in   Scattered Clouds
10:15 AM 50.0 °F - 37.4 °F 62% 29.73 in 10.0 mi NW 6.9 mph - N/A   Clear
10:55 AM 50.0 °F - 35.6 °F 58% 29.72 in 10.0 mi NW 10.4 mph 16.1 mph N/A   Clear
11:15 AM 50.0 °F - 33.8 °F 54% 29.73 in 10.0 mi NW 12.7 mph 20.7 mph N/A   Clear
11:35 AM 51.8 °F - 32.0 °F 47% 29.73 in 10.0 mi NW 10.4 mph - N/A   Clear
11:55 AM 51.8 °F - 32.0 °F 47% 29.73 in 10.0 mi NNW 10.4 mph 16.1 mph N/A   Clear
12:15 PM 53.6 °F - 32.0 °F 44% 29.72 in 10.0 mi NW 8.1 mph - N/A   Clear
12:35 PM 53.6 °F - 32.0 °F 44% 29.73 in 10.0 mi WNW 5.8 mph - N/A   Clear
12:55 PM 53.6 °F - 30.2 °F 41% 29.72 in 10.0 mi WNW 10.4 mph - N/A   Clear
1:15 PM 55.4 °F - 26.6 °F 33% 29.72 in 10.0 mi NW 10.4 mph - N/A   Clear
1:35 PM 57.2 °F - 23.0 °F 27% 29.71 in 10.0 mi WNW 9.2 mph 16.1 mph N/A   Clear
1:55 PM 59.0 °F - 23.0 °F 25% 29.68 in 10.0 mi West 8.1 mph - N/A   Clear
2:15 PM 59.0 °F - 19.4 °F 22% 29.69 in 10.0 mi WNW 13.8 mph 19.6 mph N/A   Clear
2:35 PM 59.0 °F - 15.8 °F 19% 29.70 in 10.0 mi West 9.2 mph 20.7 mph N/A   Clear
2:55 PM 59.0 °F - 14.0 °F 17% 29.72 in 10.0 mi WNW 11.5 mph 17.3 mph N/A   Clear
3:15 PM 59.0 °F - 12.2 °F 16% 29.70 in 10.0 mi West 8.1 mph 17.3 mph N/A   Clear
3:35 PM 59.0 °F - 10.4 °F 15% 29.69 in 10.0 mi West 6.9 mph 17.3 mph N/A   Clear
3:55 PM 59.0 °F - 14.0 °F 17% 29.71 in 10.0 mi WNW 8.1 mph 17.3 mph N/A   Clear
4:15 PM 57.2 °F - 14.0 °F 18% 29.72 in 10.0 mi WNW 8.1 mph - N/A   Clear
4:35 PM 55.4 °F - 19.4 °F 25% 29.72 in 10.0 mi WNW 4.6 mph - N/A   Clear
4:55 PM 55.4 °F - 14.0 °F 20% 29.73 in 10.0 mi WNW 6.9 mph - N/A   Clear
5:15 PM 55.4 °F - 10.4 °F 17% 29.72 in 10.0 mi WNW 3.5 mph - N/A   Clear
5:35 PM 55.4 °F - 10.4 °F 17% 29.73 in 10.0 mi WNW 3.5 mph - N/A   Clear
5:55 PM 53.6 °F - 14.0 °F 21% 29.74 in 10.0 mi Calm Calm - N/A   Clear
6:15 PM 53.6 °F - 12.2 °F 19% 29.74 in 10.0 mi Calm Calm - N/A   Clear
6:35 PM 53.6 °F - 17.6 °F 24% 29.73 in 10.0 mi Calm Calm - N/A   Scattered Clouds
6:55 PM 53.6 °F - 21.2 °F 28% 29.74 in 10.0 mi Calm Calm - N/A   Scattered Clouds
7:15 PM 51.8 °F - 19.4 °F 28% 29.76 in 10.0 mi Calm Calm - N/A   Scattered Clouds
7:35 PM 51.8 °F - 19.4 °F 28% 29.75 in 10.0 mi Calm Calm - N/A   Scattered Clouds
7:55 PM 51.8 °F - 17.6 °F 26% 29.73 in 10.0 mi NNW 4.6 mph - N/A   Clear
8:15 PM 51.8 °F - 19.4 °F 28% 29.75 in 10.0 mi Calm Calm - N/A   Mostly Cloudy
8:35 PM 51.8 °F - 21.2 °F 30% 29.75 in 10.0 mi Calm Calm - N/A   Mostly Cloudy
8:55 PM 50.0 °F - 23.0 °F 35% 29.75 in 10.0 mi Calm Calm - N/A   Overcast
9:15 PM 50.0 °F - 23.0 °F 35% 29.76 in 10.0 mi WNW 4.6 mph - N/A   Overcast
9:35 PM 50.0 °F - 21.2 °F 32% 29.76 in 10.0 mi WNW 4.6 mph - N/A   Overcast
9:55 PM 50.0 °F - 19.4 °F 30% 29.76 in 10.0 mi WNW 6.9 mph - N/A   Overcast
10:15 PM 50.0 °F - 17.6 °F 28% 29.76 in 10.0 mi WNW 8.1 mph - N/A   Overcast
10:35 PM 50.0 °F - 17.6 °F 28% 29.74 in 10.0 mi NW 4.6 mph - N/A   Overcast
10:55 PM 50.0 °F - 15.8 °F 26% 29.72 in 10.0 mi WNW 8.1 mph - N/A   Overcast
11:15 PM 50.0 °F - 17.6 °F 28% 29.74 in 10.0 mi West 5.8 mph - N/A   Overcast
11:35 PM 50.0 °F - 17.6 °F 28% 29.74 in 10.0 mi WNW 3.5 mph - N/A   Overcast
11:55 PM 50.0 °F - 15.8 °F 26% 29.73 in 10.0 mi West 5.8 mph - N/A   Overcast